Regional Weather Roundup
Issued by NWS

Home | Current Version | Previous Version | Graphics & Text | Print | Product List | Glossary On
Versions: 1 2 3 4 5 6 7 8 9 10 11 12 13 14 15 16 17 18 19 20 21 22 23 24 25 26 27 28 29 30 31 32 33 34 35 36 37 38 39 40 41 42 43 44 45 46 47 48 49 50
926
ASUS45 KCYS 020010
RWRWY

WYOMING REGIONAL WEATHER ROUNDUP
NATIONAL WEATHER SERVICE CHEYENNE WY
500 PM MST THU DEC 01 2016

NOTE:  "FAIR" INDICATES FEW OR NO CLOUDS BELOW 12,000 FEET
WITH NO SIGNIFICANT WEATHER AND/OR OBSTRUCTIONS TO VISIBILITY.

WYZ001-020100-
YELLOWSTONE NATIONAL PARK

CITY           SKY/WX    TMP DP  RH WIND       PRES   REMARKS
LK YELLOWSTONE   N/A     16  14  92 CALM      29.95R
6HR MIN TEMP:  16; 6HR MAX TEMP:  23; 6HR PCP:  0.01;

W YELLOWSTONE  NOT AVBL

$$
WYZ002>013-054>058-071-098>099-020100-
NORTHERN WYOMING

CITY           SKY/WX    TMP DP  RH WIND       PRES   REMARKS
JACKSON        FAIR      23  12  63 CALM      29.96R
CODY           FAIR      29  23  78 E3        29.95R
GREYBULL       FAIR      34  16  47 W3        29.95R
6HR MIN TEMP:  32; 6HR MAX TEMP:  39;

WORLAND        CLOUDY    34  23  64 W5        29.95R WCI  30
6HR MIN TEMP:  31; 6HR MAX TEMP:  40;

SHERIDAN       FAIR      31  22  69 SW6       29.94R WCI  25
6HR MIN TEMP:  30; 6HR MAX TEMP:  41;

BUFFALO        MOCLDY    36  17  46 W3        29.94R
6HR MIN TEMP:  36; 6HR MAX TEMP:  41;

GILLETTE       CLOUDY    28  24  85 W3        29.94R
6HR MIN TEMP:  28; 6HR MAX TEMP:  36;

HULETT         CLOUDY    32  27  80 SW5       29.94R WCI  27
NEWCASTLE      MOCLDY    28  23  80 W6        29.95R WCI  22

$$
WYZ014>020-022>026-101>103-020100-
CENTRAL WYOMING

CITY           SKY/WX    TMP DP  RH WIND       PRES   REMARKS
BIG PINEY      FAIR      18   9  68 NW9       29.95R WCI   7
6HR MIN TEMP:  18; 6HR MAX TEMP:  27; 6HR PCP:  0.01;

PINEDALE       FAIR      18  10  73 W10       29.94R WCI   6
DUBOIS         FAIR      23  10  58 W13       29.90R WCI  11
LANDER         FAIR      24  16  71 SW7       29.93R WCI  16
6HR MIN TEMP:  23; 6HR MAX TEMP:  30;

RIVERTON       MOCLDY    26  18  71 NE6       29.94R WCI  19
6HR MIN TEMP:  24; 6HR MAX TEMP:  31;

CASPER         FLURRIES  27  24  89 SW6       29.94R WCI  20
6HR MIN TEMP:  27; 6HR MAX TEMP:  36; 6HR PCP: TRACE;

DOUGLAS        CLOUDY    31  21  66 W10       29.95R WCI  22
6HR MIN TEMP:  31; 6HR MAX TEMP:  38;


$$
WYZ021-027>030-104>119-020100-
SOUTHERN WYOMING

CITY           SKY/WX    TMP DP  RH WIND       PRES   REMARKS
EVANSTON       FLURRIES  21  13  71 W10       29.98R WCI  10
6HR MIN TEMP:  21; 6HR MAX TEMP:  28; 6HR PCP: TRACE;

FORT BRIDGER   MOCLDY    21  14  73 W7        30.00R WCI  13
ROCK SPRINGS   FAIR      22  12  65 W10       29.95R WCI  11
6HR MIN TEMP:  22; 6HR MAX TEMP:  28;

DIXON          FLURRIES  26  20  79 SW6       30.00R WCI  19
RAWLINS        CLOUDY    24  16  71 SW10      29.93S WCI  14
6HR MIN TEMP:  24; 6HR MAX TEMP:  26; 6HR PCP: TRACE;

SARATOGA       CLOUDY    23  18  80 SW8       29.94R WCI  14
LARAMIE        CLOUDY    22  15  75 N5        29.90R WCI  16
6HR MIN TEMP:  22; 6HR MAX TEMP:  30;

CHEYENNE       CLOUDY    30  16  56 NW7       29.92R WCI  23
6HR MIN TEMP:  30; 6HR MAX TEMP:  36;

TORRINGTON     CLOUDY    33  11  39 N8        29.94R WCI  26
6HR MIN TEMP:  33; 6HR MAX TEMP:  42;

PINE BLUFFS    MOCLDY    32  19  59 NW10      29.94R WCI  24

$$




USA.gov is the U.S. government's official web portal to all federal, state and local government web resources and services.